Location: Absher
(46.5583°N, 107.9840°W)
Time: 07:27:45
(UTC+00:00)

STRAND 1 - Pass Details

Date: 09 April 2023
Orbit: 767 x 779 km, 98.4° (Epoch: 03 June)

Event Time Altitude Azimuth Distance (km) Brightness Sun altitude
Rises 02:12:09 0° 13° (NNE) 3,249 ? -4.5°
Reaches altitude 10° 02:14:28 10° 13° (NNE) 2,318 ? -4.9°
Maximum altitude 02:19:35 85° 286° (WNW) 777 ? -5.7°
Drops below altitude 10° 02:24:40 10° 198° (SSW) 2,303 ? -6.5°
Sets 02:26:58 0° 198° (SSW) 3,227 ? -6.9°
